This demonstration page uses our WeatherBlox Daily Observations layout. Learn more.

Left ArrowRight Arrow

44.89941, -97.11507

Hourly Observations for February 11, 2021

Temp ( °F °C ) Dew Point ( °F °C ) Humidity (%) Winds ( mph kmh ) Pressure ( in mb ) Visibility ( mi km ) Precip ( " mm )
12:53 am 00:53 Cloudy -8 -22.2 -14 -25.6 74 74 NNE 3 6 30.60 1036 10 16 0.00 0.00
1:53 am 01:53 Mostly Cloudy -8 -22.2 -14 -25.6 74 74 N 3 6 30.60 1036 10 16 0.00 0.00
2:53 am 02:53 Mostly Cloudy -9 -22.8 -14 -25.6 78 78 N 3 6 30.64 1038 10 16 0.00 0.00
3:53 am 03:53 Cloudy -8 -22.2 -14 -25.6 74 74 NNW 3 6 30.63 1037 10 16 0.00 0.00
4:53 am 04:53 Cloudy -8 -22.2 -14 -25.6 74 74 N 3 6 30.64 1038 10 16 0.00 0.00
5:53 am 05:53 Cloudy -8 -22.2 -14 -25.6 74 74 NNE 8 13 30.65 1038 10 16 0.00 0.00
6:53 am 06:53 Cloudy -9 -22.8 -17 -27.2 67 67 NNE 9 15 30.64 1038 10 16 0.00 0.00
7:53 am 07:53 Cloudy with Haze -9 -22.8 -16 -26.7 71 71 NE 6 9 30.64 1038 3 5 0.00 0.00
8:01 am 08:01 Cloudy with Haze -9 -22.8 -16 -26.7 71 71 NE 6 9 30.74 1041 3 4 0.00 0.00
8:14 am 08:14 Cloudy with Haze -8 -22.2 -15 -26.1 71 71 ENE 7 11 30.73 1041 3 5 0.00 0.00
8:38 am 08:38 Cloudy with Haze -8 -22.2 -15 -26.1 71 71 ENE 7 11 30.74 1041 3 4 0.00 0.00
8:49 am 08:49 Cloudy with Haze -8 -22 -15 -26 70 70 E 7 11 30.74 1041 3 5 0.00 0.00
8:53 am 08:53 Cloudy with Haze -8 -22.2 -15 -26.1 71 71 ENE 7 11 30.65 1038 3 4 0.00 0.00
9:11 am 09:11 Cloudy with Haze -8 -22.2 -15 -26.1 71 71 NE 3 6 30.75 1041 2 2 0.00 0.00
9:23 am 09:23 Cloudy with Haze -8 -22.2 -14 -25.6 74 74 N 6 9 30.75 1041 1 2 0.00 0.00
9:35 am 09:35 Cloudy with Haze -8 -22.2 -14 -25.6 74 74 N 5 7 30.76 1042 2 3 0.00 0.00
9:46 am 09:46 Cloudy with Haze -8 -22.2 -14 -25.6 74 74 NNW 7 11 30.76 1042 2 3 0.00 0.00
9:53 am 09:53 Cloudy with Haze -8 -22.2 -14 -25.6 74 74 NNW 9 15 30.68 1039 3 4 0.00 0.00
10:31 am 10:31 Cloudy with Haze -7 -21.7 -14 -25.6 71 71 NW 10 17 30.77 1042 2 2 0.00 0.00
10:53 am 10:53 Cloudy with Haze -7 -21.7 -15 -26.1 68 68 NNW 12 19 30.68 1039 2 2 0.00 0.00
11:33 am 11:33 Cloudy with Haze -7 -21.7 -14 -25.6 71 71 NNW 8 13 30.77 1042 3 4 0.00 0.00
11:43 am 11:43 Cloudy with Haze -7 -21.7 -14 -25.6 71 71 N 7 11 30.77 1042 4 6 0.00 0.00
11:53 am 11:53 Cloudy -7 -21.7 -15 -26.1 68 68 NNW 8 13 30.68 1039 7 11 0.00 0.00
12:53 pm 12:53 Cloudy with Haze -6 -21.1 -14 -25.6 67 67 NW 8 13 30.66 1038 5 8 0.00 0.00
1:40 pm 13:40 Mostly Sunny -6 -21.1 -14 -25.6 67 67 NW 12 19 30.74 1041 10 16 0.00 0.00
1:53 pm 13:53 Mostly Sunny -6 -21.1 -14 -25.6 67 67 NNW 9 15 30.66 1038 10 16 0.00 0.00
2:33 pm 14:33 Mostly Cloudy with Haze -6 -21.1 -14 -25.6 67 67 NNW 9 15 30.73 1041 5 8 0.00 0.00
2:53 pm 14:53 Cloudy with Haze -6 -21.1 -13 -25 71 71 NNW 10 17 30.65 1038 3 5 0.00 0.00
3:09 pm 15:09 Cloudy with Haze -6 -21.1 -13 -25 71 71 NNW 10 17 30.73 1041 3 4 0.00 0.00
3:33 pm 15:33 Cloudy with Haze -6 -21.1 -13 -25 71 71 N 12 19 30.73 1041 2 3 0.00 0.00
3:42 pm 15:42 Cloudy with Haze -6 -21.1 -13 -25 71 71 NNW 15 24 30.73 1041 2 3 0.00 0.00
3:49 pm 15:49 Cloudy with Haze -6 -21 -15 -26 64 64 NNW 13 20 30.74 1041 3 4 0.00 0.00
3:53 pm 15:53 Cloudy with Haze -6 -21.1 -14 -25.6 67 67 NNW 12 19 30.65 1038 3 5 0.00 0.00
4:19 pm 16:19 Cloudy with Light Snow -7 -21.7 -14 -25.6 71 71 NNW 12 19 30.74 1041 2 3 0.00 0.00
4:33 pm 16:33 Cloudy with Haze -7 -21.7 -14 -25.6 71 71 NNW 12 19 30.74 1041 3 5 0.00 0.00
4:46 pm 16:46 Cloudy -7 -21.7 -15 -26.1 68 68 N 12 19 30.74 1041 8 13 0.00 0.00
4:53 pm 16:53 Cloudy -7 -21.7 -15 -26.1 68 68 N 12 19 30.65 1038 10 16 0.00 0.00
5:53 pm 17:53 Cloudy with Haze -9 -22.8 -15 -26.1 75 75 N 12 19 30.66 1038 3 5 0.00 0.00
6:53 pm 18:53 Cloudy -9 -22.8 -16 -26.7 71 71 NNW 12 19 30.67 1039 7 11 0.00 0.00
7:44 pm 19:44 Cloudy with Haze -9 -22.8 -15 -26.1 75 75 N 8 13 30.77 1042 3 4 0.00 0.00
7:53 pm 19:53 Cloudy with Haze -9 -22.8 -15 -26.1 75 75 N 7 11 30.68 1039 3 4 0.00 0.00
8:14 pm 20:14 Cloudy with Light Snow -9 -22.8 -15 -26.1 75 75 N 6 9 30.77 1042 2 3 0.00 0.00
8:33 pm 20:33 Cloudy with Haze -9 -22.8 -15 -26.1 75 75 NNW 6 9 30.77 1042 3 4 0.00 0.00
8:41 pm 20:41 Cloudy with Haze -9 -22.8 -15 -26.1 75 75 NNW 5 7 30.77 1042 4 6 0.00 0.00
8:53 pm 20:53 Cloudy -9 -22.8 -15 -26.1 75 75 NNW 7 11 30.67 1039 7 11 0.00 0.00
9:53 pm 21:53 Mostly Cloudy with Haze -10 -23.3 -16 -26.7 74 74 NW 6 9 30.69 1039 6 10 0.00 0.00
10:53 pm 22:53 Mostly Clear -12 -24.4 -18 -27.8 73 73 NW 6 9 30.68 1039 10 16 0.00 0.00
11:53 pm 23:53 Clear -14 -25.6 -18 -27.8 82 82 NW 7 11 30.68 1039 10 16 0.00 0.00

Powered by AerisWeather